This is the latest recevied weather packets stored in our database for station/object WZ9ZZZ-1. If no packets are shown the sender has not sent any weather packets the latest 10 day(s).
| Time | Temp. | Humidity | Pressure | Rain* | Wind** | Luminosity | Snow |
|---|---|---|---|---|---|---|---|
| 1777734575 | 18.89° C | 73% | 1023 hPa | 0 mm | - | 557 W/m² | - |
| 1777734272 | 18.89° C | 74% | 1023.1 hPa | 0 mm | - | 530 W/m² | - |
| 1777733968 | 18.33° C | 75% | 1023.2 hPa | 0 mm | - | 514 W/m² | - |
| 1777733665 | 18.33° C | 75% | 1023.2 hPa | 0 mm | - | 488 W/m² | - |
| 1777733362 | 18.89° C | 74% | 1023.1 hPa | 0 mm | - | 475 W/m² | - |
| 1777733059 | 17.78° C | 74% | 1023.2 hPa | 0 mm | - | 462 W/m² | - |
| 1777732754 | 17.78° C | 76% | 1023.3 hPa | 0 mm | - | 423 W/m² | - |
| 1777732452 | 17.78° C | 76% | 1023.2 hPa | 0 mm | - | 403 W/m² | - |
| 1777732149 | 17.22° C | 78% | 1023.2 hPa | 0 mm | - | 386 W/m² | - |
| 1777731846 | 16.67° C | 78% | 1023 hPa | 0 mm | - | 354 W/m² | - |
| 1777731543 | 16.67° C | 79% | 1023.2 hPa | 0 mm | - | 341 W/m² | - |
| 1777731241 | 16.67° C | 79% | 1022.9 hPa | 0 mm | - | 340 W/m² | - |
| 1777730938 | 16.67° C | 80% | 1022.9 hPa | 0 mm | - | 301 W/m² | - |
| 1777730636 | 16.67° C | 80% | 1023 hPa | 0 mm | - | 288 W/m² | - |
| 1777730332 | 16.11° C | 81% | 1022.9 hPa | 0 mm | - | 72 W/m² | - |
| 1777730029 | 16.11° C | 81% | 1022.9 hPa | 0 mm | - | 65 W/m² | - |
| 1777729725 | 16.11° C | 81% | 1023 hPa | 0 mm | - | 61 W/m² | - |
| 1777729422 | 16.11° C | 82% | 1022.7 hPa | 0 mm | - | 229 W/m² | - |
| 1777729118 | 15.56° C | 82% | 1022.8 hPa | 0 mm | - | 54 W/m² | - |
| 1777728815 | 15.56° C | 83% | 1022.7 hPa | 0 mm | - | 183 W/m² | - |
| 1777728512 | 15.56° C | 84% | 1022.5 hPa | 0 mm | - | 161 W/m² | - |
| 1777728209 | 15.56° C | 85% | 1022.3 hPa | 0 mm | - | 168 W/m² | - |
| 1777727906 | 15° C | 85% | 1022.2 hPa | 0 mm | - | 143 W/m² | - |
| 1777727603 | 15° C | 86% | 1022.1 hPa | 0 mm | - | 49 W/m² | - |
| 1777727300 | 15° C | 87% | 1022.1 hPa | 0 mm | - | 68 W/m² | - |
* Rain latest hour (hover to see other rain measurements)
** Current wind speed in m/s (hover to see current wind gust speed)